User: anonymous   Login
Location: Unspecified
(0.0000°N, 0.0000°E)
Time: 22:31:58
(UTC+00:00)
Language:

Hamsat - Orbit

View from above orbital plane
View from above orbital plane
View from above satellite
View from above satellite

Ground track
Ground track

The orbit data is extracted from the following two-line orbital elements,

1 28650U 05017B   18175.49225759  .00000254  00000-0  32715-4 0  9992
2 28650  97.6994 143.3926 0022963 342.5337  17.5088 14.88946687711564
Epoch (UTC): 24 June 2018 11:48:51
Eccentricity: 0.0022963
inclination: 97.6994°
perigee height: 585 km
apogee height: 617 km
right ascension of ascending node: 143.3926°
argument of perigee: 342.5337°
revolutions per day: 14.88946687
mean anomaly at epoch: 17.5088°
orbit number at epoch: 71156

The dashed part of the orbit path shows where the satellite is in the earth's shadow,  

DLR